Regional Weather Roundup
Issued by NWS

Home | Current Version | Previous Version | Text Only | Print | Product List | Glossary On
Versions: 1 2 3 4 5 6 7 8 9 10 11 12 13 14 15 16 17 18 19 20 21 22 23 24 25 26 27 28 29 30 31 32 33 34 35 36 37 38 39 40 41 42 43 44 45 46 47 48 49 50
090
ASUS43 KOAX 251502
RWRNE

WEATHER ROUNDUP FOR NEBRASKA
NATIONAL WEATHER SERVICE OMAHA NE
1000 AM CDT SUN SEP 25 2016

NOTES: SATELLITE DATA IS BEING USED TO AUGMENT CLOUD COVER ABOVE
       12000 FEET.
       "FAIR" INDICATES FEW OR NO CLOUDS BELOW 12,000 FEET WITH NO
       SIGNIFICANT WEATHER AND/OR OBSTRUCTIONS TO VISIBILITY.

  * THESE STATIONS DO NOT REPORT WEATHER SUCH AS RAIN...SNOW OR FOG.

NEZ001>004-019>022-054>056-251600-
NEBRASKA PANHANDLE

CITY           SKY/WX    TMP DP  RH WIND       PRES   REMARKS
SCOTTSBLUFF    SUNNY     52  40  63 W10       30.43R
ALLIANCE       SUNNY     52  40  63 NW21G29   30.37R
CHADRON        SUNNY     54  40  59 NW22G33   30.37R
KIMBALL        SUNNY     53  39  60 NW18G25   30.45R
SIDNEY         LGT RAIN  54  40  59 N21G30    30.42R
$$

NEZ057>060-069>072-079>082-251600-
SOUTHWEST NEBRASKA

CITY           SKY/WX    TMP DP  RH WIND       PRES   REMARKS
NORTH PLATTE   SUNNY     61  43  51 NW25G35   30.31R
IMPERIAL       SUNNY     58  37  45 NW26G36   30.36R
LEXINGTON      SUNNY     60  45  57 NW14      30.27R
MCCOOK         SUNNY     61  42  49 NW22G32   30.30R
OGALLALA       SUNNY     58  41  54 NW21G32   30.36R
$$

NEZ005>010-023>029-035>040-094-251600-
NORTH CENTRAL NEBRASKA

CITY           SKY/WX    TMP DP  RH WIND       PRES   REMARKS
VALENTINE      SUNNY     57  36  45 NW26G39   30.24R
AINSWORTH      SUNNY     57  43  59 NW21G33   30.23R
BROKEN BOW     SUNNY     59  44  57 NW22G29   30.24R
O`NEILL        SUNNY     61  42  50 NW26G37   30.18R
ORD            SUNNY     60  42  51 NW25G43   30.19R
THEDFORD       SUNNY     58  42  56 NW18G31   30.29R
$$

NEZ041-046>049-061>064-073>077-083>087-251600-
SOUTH CENTRAL NEBRASKA

CITY           SKY/WX    TMP DP  RH WIND       PRES   REMARKS
GRAND ISLAND   SUNNY     61  44  53 NW24G30   30.22R
AURORA         SUNNY     61  46  56 NW16G24   30.20R
HASTINGS       SUNNY     61  44  53 NW20      30.23R
HEBRON         CLOUDY    59  47  63 NW10G16   30.21R
HOLDREGE       SUNNY     59  42  53 NW14G23   30.27R
KEARNEY *      SUNNY     61  43  51 NW17G23   30.25R
YORK           PTSUNNY   59  48  67 NW18G24   30.19R
$$

NEZ011>018-030>034-042>045-251600-
NORTHEAST NEBRASKA

CITY           SKY/WX    TMP DP  RH WIND       PRES   REMARKS
NORFOLK        SUNNY     62  45  53 NW20G31   30.12S
ALBION         SUNNY     60  45  56 NW22G30   30.17R
BLAIR          CLOUDY    58  50  74 W10       30.13R
FREMONT        MOSUNNY   60  49  68 W14       30.13R
TEKAMAH        MOSUNNY   62  48  60 W14       30.11R
WAYNE          SUNNY     62  49  61 W21G30    30.10S
$$

NEZ050>053-065>068-078-088>093-251600-
SOUTHEAST NEBRASKA

CITY           SKY/WX    TMP DP  RH WIND       PRES   REMARKS
LINCOLN        CLOUDY    61  48  62 NW9       30.18R
OMAHA EPPLEY   CLOUDY    60  48  64 W10       30.13R
BEATRICE       CLOUDY    59  51  74 NW10      30.19R
FALLS CITY     CLOUDY    61  53  75 NW10      30.15R
NEBRASKA CITY  CLOUDY    60  44  55 NW8       30.16R
PLATTSMOUTH    PTSUNNY   59  48  67 W10       30.15R
$$

NEZ044-045-051>053-067-251600-
OMAHA AREA

CITY           SKY/WX    TMP DP  RH WIND       PRES   REMARKS
OMAHA EPPLEY   CLOUDY    60  48  64 W10       30.13R
BLAIR          CLOUDY    58  50  74 W10       30.13R
FREMONT        MOSUNNY   60  49  68 W14       30.13R
MILLARD        CLOUDY    60  49  67 W10       30.14R
OFFUTT AFB     CLOUDY    60  50  70 NW8       30.13R
PLATTSMOUTH    PTSUNNY   59  48  67 W10       30.15R
WAHOO          FAIR      60  47  62 NW10      30.14R
$$




USA.gov is the U.S. government's official web portal to all federal, state and local government web resources and services.